When you browse on this site, cookies collect data to enhance your experience and personalize the content and advertising you see.
Visit our Privacy Policy to learn more. By continuing to use the site, you agree to this use of cookies and data.
  • In Hungary
  • List of Countries
  • For 7 days
  • Water Temperature
  • Weather Map
  • News
  • Weather Widgets
  • user-avatar
    Login

    Hourly Weather Tarlau

    Today, 16 October, Wednesday

    Time Temperature Precipitation Wind Pressure Humidity
    00:00 +1°C° 0 mm 5 mps 753 mmHg 87%
    01:00 +1°C° 0.2 mm 5 mps 753 mmHg 89%
    02:00 +1°C° 0.2 mm 5 mps 754 mmHg 91%
    03:00 +1°C° 0 mm 5 mps 755 mmHg 93%
    04:00 +1°C° 0.1 mm 5 mps 755 mmHg 92%
    05:00 +1°C° 0.1 mm 5 mps 756 mmHg 90%
    06:00 +1°C° 0.1 mm 5 mps 756 mmHg 89%
    07:00 +1°C° 0 mm 5 mps 757 mmHg 86%
    08:00 +1°C° 0 mm 6 mps 758 mmHg 84%
    09:00 +1°C° 0 mm 6 mps 758 mmHg 80%
    10:00 +2°C° 0 mm 6 mps 759 mmHg 77%
    11:00 +2°C° 0 mm 5 mps 759 mmHg 74%
    12:00 +2°C° 0 mm 5 mps 759 mmHg 71%
    13:00 +2°C° 0 mm 5 mps 760 mmHg 71%
    14:00 +3°C° 0 mm 4 mps 760 mmHg 71%
    15:00 +3°C° 0 mm 4 mps 761 mmHg 72%
    16:00 +3°C° 0 mm 3 mps 761 mmHg 75%
    17:00 +2°C° 0 mm 3 mps 761 mmHg 79%
    18:00 +2°C° 0 mm 2 mps 761 mmHg 83%
    19:00 +3°C° 0 mm 1 mps 761 mmHg 83%
    20:00 +3°C° 0 mm 1 mps 761 mmHg 84%
    21:00 +1°C° 0 mm 0 mps 762 mmHg 85%
    22:00 +3°C° 0 mm 1 mps 761 mmHg 85%
    23:00 +3°C° 0 mm 1 mps 761 mmHg 84%

    Tomorrow, 17 October, Thursday

    Time Temperature Precipitation Wind Pressure Humidity
    00:00 +2°C° 0 mm 2 mps 761 mmHg 84%
    01:00 +2°C° 0 mm 2 mps 761 mmHg 85%
    02:00 +2°C° 0 mm 2 mps 762 mmHg 87%
    03:00 +2°C° 0 mm 2 mps 762 mmHg 88%
    04:00 +1°C° 0.4 mm 2 mps 761 mmHg 91%
    05:00 0°C° 0.4 mm 3 mps 761 mmHg 94%
    06:00 -1°C° 0.4 mm 4 mps 760 mmHg 97%
    07:00 -1°C° 0.9 mm 4 mps 760 mmHg 97%
    08:00 0°C° 0.9 mm 5 mps 759 mmHg 97%
    09:00 0°C° 0.9 mm 5 mps 758 mmHg 97%
    10:00 +1°C° 0 mm 6 mps 758 mmHg 92%
    11:00 +2°C° 0 mm 6 mps 757 mmHg 88%
    12:00 +3°C° 0 mm 6 mps 756 mmHg 84%
    13:00 +4°C° 0 mm 6 mps 756 mmHg 82%
    14:00 +5°C° 0 mm 5 mps 755 mmHg 81%
    15:00 +6°C° 0 mm 4 mps 755 mmHg 79%
    16:00 +6°C° 0 mm 5 mps 754 mmHg 80%
    17:00 +6°C° 0 mm 5 mps 754 mmHg 82%
    18:00 +6°C° 0 mm 5 mps 754 mmHg 83%
    19:00 +6°C° 0 mm 5 mps 753 mmHg 84%
    20:00 +6°C° 0 mm 5 mps 753 mmHg 85%
    21:00 +7°C° 0 mm 5 mps 753 mmHg 86%
    22:00 +6°C° 0 mm 5 mps 753 mmHg 87%
    23:00 +6°C° 0 mm 5 mps 752 mmHg 88%

    Day after tomorrow, 18 October, Friday

    Time Temperature Precipitation Wind Pressure Humidity
    00:00 +6°C° 0 mm 5 mps 752 mmHg 88%
    01:00 +6°C° 0 mm 5 mps 752 mmHg 89%
    02:00 +6°C° 0 mm 5 mps 751 mmHg 90%
    03:00 +6°C° 0 mm 5 mps 751 mmHg 90%
    04:00 +6°C° 0 mm 5 mps 751 mmHg 91%
    05:00 +6°C° 0 mm 5 mps 750 mmHg 91%
    06:00 +6°C° 0 mm 5 mps 750 mmHg 92%
    07:00 +7°C° 0 mm 4 mps 749 mmHg 91%
    08:00 +7°C° 0 mm 4 mps 749 mmHg 91%
    09:00 +7°C° 0 mm 4 mps 749 mmHg 91%
    10:00 +7°C° 0 mm 4 mps 749 mmHg 91%
    11:00 +7°C° 0 mm 4 mps 748 mmHg 92%
    12:00 +8°C° 0 mm 4 mps 748 mmHg 92%
    13:00 +9°C° 1.4 mm 3 mps 748 mmHg 94%
    14:00 +9°C° 1.4 mm 3 mps 748 mmHg 95%
    15:00 +9°C° 1.4 mm 3 mps 748 mmHg 97%
    16:00 +8°C° 0.2 mm 3 mps 749 mmHg 97%
    17:00 +8°C° 0.2 mm 3 mps 749 mmHg 97%
    18:00 +8°C° 0.2 mm 3 mps 750 mmHg 98%
    19:00 +7°C° 0 mm 3 mps 750 mmHg 96%
    20:00 +6°C° 0 mm 4 mps 751 mmHg 95%
    21:00 +5°C° 0 mm 4 mps 751 mmHg 94%
    22:00 +5°C° 0 mm 4 mps 751 mmHg 93%
    23:00 +4°C° 0 mm 4 mps 752 mmHg 92%

    19 October, Saturday

    Time Temperature Precipitation Wind Pressure Humidity
    00:00 +4°C° 0 mm 4 mps 752 mmHg 92%
    01:00 +4°C° 0 mm 4 mps 753 mmHg 91%
    02:00 +4°C° 0 mm 4 mps 753 mmHg 91%
    03:00 +3°C° 0 mm 4 mps 754 mmHg 90%
    04:00 +3°C° 0 mm 4 mps 754 mmHg 90%
    05:00 +3°C° 0 mm 4 mps 754 mmHg 90%
    06:00 +1°C° 0 mm 4 mps 755 mmHg 90%
    07:00 +1°C° 0 mm 4 mps 755 mmHg 89%
    08:00 +1°C° 0 mm 4 mps 756 mmHg 89%
    09:00 +1°C° 0 mm 4 mps 756 mmHg 88%
    10:00 +3°C° 0 mm 3 mps 757 mmHg 86%
    11:00 +3°C° 0 mm 3 mps 757 mmHg 85%
    12:00 +3°C° 0 mm 3 mps 758 mmHg 83%
    13:00 +3°C° 0 mm 3 mps 758 mmHg 83%
    14:00 +3°C° 0 mm 3 mps 758 mmHg 83%
    15:00 +3°C° 0 mm 3 mps 758 mmHg 83%
    16:00 +3°C° 0 mm 3 mps 759 mmHg 84%
    17:00 +2°C° 0 mm 3 mps 759 mmHg 84%
    18:00 +2°C° 0 mm 3 mps 759 mmHg 85%
    19:00 +3°C° 0 mm 2 mps 760 mmHg 84%
    20:00 +3°C° 0 mm 2 mps 760 mmHg 83%
    21:00 +2°C° 0 mm 2 mps 760 mmHg 83%
    22:00 +3°C° 0 mm 1 mps 760 mmHg 82%
    23:00 +3°C° 0 mm 1 mps 760 mmHg 82%

    20 October, Sunday

    Time Temperature Precipitation Wind Pressure Humidity
    00:00 +3°C° 0 mm 1 mps 761 mmHg 81%
    01:00 +3°C° 0 mm 1 mps 761 mmHg 81%
    02:00 +3°C° 0 mm 1 mps 761 mmHg 81%
    03:00 +2°C° 0 mm 0 mps 761 mmHg 81%
    04:00 +3°C° 0 mm 1 mps 761 mmHg 81%
    05:00 +3°C° 0 mm 1 mps 761 mmHg 81%
    06:00 +3°C° 0 mm 1 mps 761 mmHg 81%
    07:00 +3°C° 0 mm 1 mps 761 mmHg 79%
    08:00 +4°C° 0 mm 1 mps 761 mmHg 77%
    09:00 +3°C° 0 mm 2 mps 761 mmHg 74%
    10:00 +3°C° 0 mm 2 mps 761 mmHg 74%
    11:00 +4°C° 0 mm 2 mps 761 mmHg 74%
    12:00 +3°C° 0 mm 3 mps 761 mmHg 73%
    13:00 +4°C° 0 mm 3 mps 761 mmHg 76%
    14:00 +4°C° 0 mm 3 mps 761 mmHg 78%
    15:00 +4°C° 0 mm 4 mps 761 mmHg 80%
    16:00 +4°C° 0 mm 4 mps 761 mmHg 83%
    17:00 +3°C° 0 mm 4 mps 760 mmHg 87%
    18:00 +3°C° 0 mm 4 mps 760 mmHg 90%
    19:00 +2°C° 0 mm 5 mps 760 mmHg 90%
    20:00 +3°C° 0 mm 5 mps 760 mmHg 90%
    21:00 +3°C° 0 mm 5 mps 759 mmHg 90%
    22:00 +3°C° 0 mm 5 mps 759 mmHg 90%
    23:00 +4°C° 0 mm 6 mps 759 mmHg 90%

    21 October, Monday

    Time Temperature Precipitation Wind Pressure Humidity
    00:00 +4°C° 0 mm 6 mps 758 mmHg 90%
    01:00 +4°C° 0.1 mm 6 mps 758 mmHg 91%
    02:00 +5°C° 0.1 mm 6 mps 758 mmHg 92%
    03:00 +5°C° 0.1 mm 6 mps 758 mmHg 93%
    04:00 +6°C° 0.1 mm 5 mps 757 mmHg 94%
    05:00 +6°C° 0.1 mm 5 mps 757 mmHg 95%
    06:00 +6°C° 0.1 mm 5 mps 757 mmHg 96%
    07:00 +7°C° 0 mm 5 mps 757 mmHg 95%
    08:00 +7°C° 0 mm 4 mps 757 mmHg 95%
    09:00 +7°C° 0 mm 4 mps 757 mmHg 95%
    10:00 +8°C° 0 mm 4 mps 757 mmHg 92%
    11:00 +10°C° 0 mm 4 mps 757 mmHg 90%
    12:00 +10°C° 0 mm 5 mps 756 mmHg 87%
    13:00 +10°C° 0 mm 5 mps 756 mmHg 87%
    14:00 +10°C° 0 mm 5 mps 755 mmHg 86%
    15:00 +10°C° 0 mm 5 mps 755 mmHg 86%
    16:00 +10°C° 0 mm 6 mps 755 mmHg 86%
    17:00 +10°C° 0 mm 6 mps 754 mmHg 86%
    18:00 +10°C° 0 mm 7 mps 754 mmHg 86%
    19:00 +10°C° 0 mm 7 mps 753 mmHg 85%
    20:00 +10°C° 0 mm 7 mps 752 mmHg 84%
    21:00 +11°C° 0 mm 7 mps 751 mmHg 83%
    22:00 +11°C° 0 mm 8 mps 751 mmHg 82%
    23:00 +11°C° 0 mm 8 mps 750 mmHg 82%
    Show more